owner,sensor,date,latitude,longitude,vertical_datum,wind_speed,wind_to_direction,wind_speed_of_gust,qcFlag 
TABS,ioos:station:wmo:42044:1,2002-05-11T00:00:00Z,26.1914,-97.0507,0.0,5.218400138,73.75258785,7.47,'11111222,11111222,11111222' 
TABS,ioos:station:wmo:42044:1,2002-05-12T00:00:00Z,26.1914,-97.0507,0.0,5.218400138,73.75258785,7.47,'11111222,11111222,11111222' 
TABS,ioos:station:wmo:42044:1,2002-05-13T00:00:00Z,26.1914,-97.0507,0.0,5.218400138,73.75258785,7.47,'11111222,11111222,11111222' 
TABS,ioos:station:wmo:42044:1,2002-05-14T00:00:00Z,26.1914,-97.0507,0.0,5.218400138,73.75258785,7.47,'11111222,11111222,11111222' 
TABS,ioos:station:wmo:42044:1,2002-05-14T15:39:00Z,26.1914,-97.0507,0.0,5.218400138,73.75258785,7.47,'11111222,11111222,11111222' 
TABS,ioos:station:wmo:42044:1,2002-05-14T17:09:00Z,26.1914,-97.0507,0.0,6.085162282,74.36462274,8.14,'11111222,11111222,11111222' 
TABS,ioos:station:wmo:42044:1,2002-05-14T17:39:00Z,26.1914,-97.0507,0.0,6.270223282,75.12117203,8.41,'11111222,11111222,11111222' 
TABS,ioos:station:wmo:42044:1,2002-05-14T18:09:00Z,26.1914,-97.0507,0.0,6.39,90.00042092,9.5,'11111222,11111222,11111222' 
TABS,ioos:station:wmo:42044:1,2002-05-14T18:39:00Z,26.1914,-97.0507,0.0,6.230770418,99.23595841,8.91,'11111222,11111222,11111222' 
TABS,ioos:station:wmo:42044:1,2002-05-14T20:09:00Z,26.1914,-97.0507,0.0,6.800183821,95.40079904,10.2,'11111222,11111222,11111222' 
TABS,ioos:station:wmo:42044:1,2002-05-14T20:39:00Z,26.1914,-97.0507,0.0,7.114632809,97.10544304,9.66,'11111222,11111222,11111222' 
TABS,ioos:station:wmo:42044:1,2002-05-14T21:39:00Z,26.1914,-97.0507,0.0,6.521610231,114.1680219,9.73,'11111222,11111222,11111222' 
TABS,ioos:station:wmo:42044:1,2002-05-15T02:39:00Z,26.1914,-97.0507,0.0,7.841358301,103.6467507,10.7,'11111222,11111222,11111222' 
TABS,ioos:station:wmo:42044:1,2002-05-15T04:39:00Z,26.1914,-97.0507,0.0,6.856391179,123.1573345,10.17,'11111222,11111222,11111222' 
TABS,ioos:station:wmo:42044:1,2002-05-15T06:09:00Z,26.1914,-97.0507,0.0,5.730078533,152.2277636,7.95,'11111222,11111222,11111222' 
TABS,ioos:station:wmo:42044:1,2002-05-15T07:39:00Z,26.1914,-97.0507,0.0,5.999816664,158.1811189,8.36,'11111222,11111222,11111222' 
TABS,ioos:station:wmo:42044:1,2002-05-15T08:09:00Z,26.1914,-97.0507,0.0,5.609358252,154.6686691,7.5,'11111222,11111222,11111222' 
TABS,ioos:station:wmo:42044:1,2002-05-15T09:09:00Z,26.1914,-97.0507,0.0,5.189730243,141.6508482,7.29,'11111222,11111222,11111222' 
TABS,ioos:station:wmo:42044:1,2002-05-15T09:39:00Z,26.1914,-97.0507,0.0,4.973047355,140.548769,7.68,'11111222,11111222,11111222' 
TABS,ioos:station:wmo:42044:1,2002-05-15T10:09:00Z,26.1914,-97.0507,0.0,5.368891878,138.3224563,7.48,'11111222,11111222,11111222' 
TABS,ioos:station:wmo:42044:1,2002-05-15T11:09:00Z,26.1914,-97.0507,0.0,4.548142478,143.5839171,6.57,'11111222,11111222,11111222' 
TABS,ioos:station:wmo:42044:1,2002-05-15T13:39:00Z,26.1914,-97.0507,0.0,4.321400236,156.4012554,5.9,'11111222,11111222,11111222' 
TABS,ioos:station:wmo:42044:1,2002-05-15T14:09:00Z,26.1914,-97.0507,0.0,5.2403435,158.0364267,6.88,'11111222,11111222,11111222' 
TABS,ioos:station:wmo:42044:1,2002-05-15T14:39:00Z,26.1914,-97.0507,0.0,4.925200504,159.0629741,6.62,'11111222,11111222,11111222' 
TABS,ioos:station:wmo:42044:1,2002-05-15T15:09:00Z,26.1914,-97.0507,0.0,4.682776954,156.0626239,5.99,'11111222,11111222,11111222' 
TABS,ioos:station:wmo:42044:1,2002-05-15T15:39:00Z,26.1914,-97.0507,0.0,5.14874742,160.7207127,6.76,'11111222,11111222,11111222' 
TABS,ioos:station:wmo:42044:1,2002-05-15T16:39:00Z,26.1914,-97.0507,0.0,5.51130656,156.1327776,7.2,'11111222,11111222,11111222' 
TABS,ioos:station:wmo:42044:1,2002-05-15T17:09:00Z,26.1914,-97.0507,0.0,5.770615219,152.1030047,7.47,'11111222,11111222,11111222' 
TABS,ioos:station:wmo:42044:1,2002-05-15T17:39:00Z,26.1914,-97.0507,0.0,5.457591044,158.2768317,7.21,'11111222,11111222,11111222' 
TABS,ioos:station:wmo:42044:1,2002-05-15T19:09:00Z,26.1914,-97.0507,0.0,6.52651515,152.1395161,8.32,'11111222,11111222,11111222' 
TABS,ioos:station:wmo:42044:1,2002-05-15T19:39:00Z,26.1914,-97.0507,0.0,6.736839021,155.9082473,8.55,'11111222,11111222,11111222' 
TABS,ioos:station:wmo:42044:1,2002-05-15T21:39:00Z,26.1914,-97.0507,0.0,7.355868406,155.2468884,10.29,'11111222,11111222,11111222' 
TABS,ioos:station:wmo:42044:1,2002-05-15T22:39:00Z,26.1914,-97.0507,0.0,7.525749132,156.0918883,9.34,'11111222,11111222,11111222' 
TABS,ioos:station:wmo:42044:1,2002-05-15T23:39:00Z,26.1914,-97.0507,0.0,7.96337868,155.9135872,10.26,'11111222,11111222,11111222' 
TABS,ioos:station:wmo:42044:1,2002-05-16T00:09:00Z,26.1914,-97.0507,0.0,7.482312477,157.4451925,9.33,'11111222,11111222,11111222' 
TABS,ioos:station:wmo:42044:1,2002-05-16T03:39:00Z,26.1914,-97.0507,0.0,7.580639815,156.2756766,10.04,'11111222,11111222,11111222' 
TABS,ioos:station:wmo:42044:1,2002-05-16T05:09:00Z,26.1914,-97.0507,0.0,6.20209642,167.711916,8.33,'11111222,11111222,11111222' 
TABS,ioos:station:wmo:42044:1,2002-05-16T08:09:00Z,26.1914,-97.0507,0.0,8.580472015,179.3992292,11.69,'11111222,11111222,11111222' 
TABS,ioos:station:wmo:42044:1,2002-05-16T08:39:00Z,26.1914,-97.0507,0.0,8.261361873,178.959847,11.08,'11111222,11111222,11111222' 
TABS,ioos:station:wmo:42044:1,2002-05-16T10:09:00Z,26.1914,-97.0507,0.0,8.17004284,184.9152624,11.33,'11111222,11111222,11111222' 
TABS,ioos:station:wmo:42044:1,2002-05-16T10:39:00Z,26.1914,-97.0507,0.0,7.256479863,186.4886181,9.83,'11111222,11111222,11111222' 
TABS,ioos:station:wmo:42044:1,2002-05-16T11:09:00Z,26.1914,-97.0507,0.0,7.587733522,191.3249254,10.29,'11111222,11111222,11111222' 
TABS,ioos:station:wmo:42044:1,2002-05-16T15:39:00Z,26.1914,-97.0507,0.0,7.645469247,171.4249979,10.72,'11111222,11111222,11111222' 
TABS,ioos:station:wmo:42044:1,2002-05-16T16:09:00Z,26.1914,-97.0507,0.0,7.697077367,173.6600335,10.31,'11111222,11111222,11111222' 
TABS,ioos:station:wmo:42044:1,2002-05-16T18:09:00Z,26.1914,-97.0507,0.0,6.815049523,168.5748889,9.3,'11111222,11111222,11111222' 
TABS,ioos:station:wmo:42044:1,2002-05-16T18:39:00Z,26.1914,-97.0507,0.0,6.446091839,170.6255854,9.21,'11111222,11111222,11111222' 
TABS,ioos:station:wmo:42044:1,2002-05-16T19:09:00Z,26.1914,-97.0507,0.0,6.096900852,177.2739058,8.97,'11111222,11111222,11111222' 
TABS,ioos:station:wmo:42044:1,2002-05-16T19:39:00Z,26.1914,-97.0507,0.0,6.640368966,171.0769473,9.5,'11111222,11111222,11111222' 
TABS,ioos:station:wmo:42044:1,2002-05-16T20:09:00Z,26.1914,-97.0507,0.0,7.029153576,172.5617914,9.91,'11111222,11111222,11111222' 
TABS,ioos:station:wmo:42044:1,2002-05-16T21:09:00Z,26.1914,-97.0507,0.0,6.809170287,168.8223218,9.6,'11111222,11111222,11111222' 
TABS,ioos:station:wmo:42044:1,2002-05-16T21:39:00Z,26.1914,-97.0507,0.0,6.491663885,163.9942344,9.55,'11111222,11111222,11111222' 
TABS,ioos:station:wmo:42044:1,2002-05-16T22:09:00Z,26.1914,-97.0507,0.0,7.263917676,167.4372104,9.76,'11111222,11111222,11111222' 
TABS,ioos:station:wmo:42044:1,2002-05-17T03:09:00Z,26.1914,-97.0507,0.0,8.064366063,162.2393401,11.07,'11111222,11111222,11111222' 
TABS,ioos:station:wmo:42044:1,2002-05-17T04:09:00Z,26.1914,-97.0507,0.0,7.865901093,167.518836,10.85,'11111222,11111222,11111222' 
TABS,ioos:station:wmo:42044:1,2002-05-17T04:39:00Z,26.1914,-97.0507,0.0,7.834851626,168.5899117,11.02,'11111222,11111222,11111222' 
TABS,ioos:station:wmo:42044:1,2002-05-17T09:39:00Z,26.1914,-97.0507,0.0,7.917284888,187.475281,11.07,'11111222,11111222,11111222' 
TABS,ioos:station:wmo:42044:1,2002-05-17T10:39:00Z,26.1914,-97.0507,0.0,9.188209837,185.8721161,12.39,'11111222,11111222,11111222' 
TABS,ioos:station:wmo:42044:1,2002-05-17T11:09:00Z,26.1914,-97.0507,0.0,7.146726523,188.9353053,9.69,'11111222,11111222,11111222' 
TABS,ioos:station:wmo:42044:1,2002-05-17T12:09:00Z,26.1914,-97.0507,0.0,7.146726523,188.9353053,9.4,'11111222,11111222,11111222' 
TABS,ioos:station:wmo:42044:1,2002-05-17T12:39:00Z,26.1914,-97.0507,0.0,7.206004441,188.8612094,9.55,'11111222,11111222,11111222' 
TABS,ioos:station:wmo:42044:1,2002-05-17T13:09:00Z,26.1914,-97.0507,0.0,6.058258826,184.4496802,8.49,'11111222,11111222,11111222' 
TABS,ioos:station:wmo:42044:1,2002-05-17T13:39:00Z,26.1914,-97.0507,0.0,6.309714732,183.1800331,8.82,'11111222,11111222,11111222' 
TABS,ioos:station:wmo:42044:1,2002-05-17T14:09:00Z,26.1914,-97.0507,0.0,6.900384047,184.4052738,9.21,'11111222,11111222,11111222' 
TABS,ioos:station:wmo:42044:1,2002-05-17T14:39:00Z,26.1914,-97.0507,0.0,6.470625936,180.7971619,8.65,'11111222,11111222,11111222' 
TABS,ioos:station:wmo:42044:1,2002-05-17T15:39:00Z,26.1914,-97.0507,0.0,7.491895621,189.915133,9.67,'11111222,11111222,11111222' 
TABS,ioos:station:wmo:42044:1,2002-05-17T16:09:00Z,26.1914,-97.0507,0.0,7.385478996,193.5472091,9.29,'11111222,11111222,11111222' 
TABS,ioos:station:wmo:42044:1,2002-05-17T18:09:00Z,26.1914,-97.0507,0.0,7.657806474,185.6959005,9.82,'11111222,11111222,11111222' 
TABS,ioos:station:wmo:42044:1,2002-05-17T18:39:00Z,26.1914,-97.0507,0.0,6.772392487,181.5232218,9.42,'11111222,11111222,11111222' 
TABS,ioos:station:wmo:42044:1,2002-05-17T19:39:00Z,26.1914,-97.0507,0.0,5.632850078,168.012045,7.45,'11111222,11111222,11111222' 
TABS,ioos:station:wmo:42044:1,2002-05-17T22:09:00Z,26.1914,-97.0507,0.0,7.199562487,147.7671379,9.49,'11111222,11111222,11111222' 
TABS,ioos:station:wmo:42044:1,2002-05-18T00:39:00Z,26.1914,-97.0507,0.0,7.374584734,141.1099523,9.88,'11111222,11111222,11111222' 
TABS,ioos:station:wmo:42044:1,2002-05-18T02:39:00Z,26.1914,-97.0507,0.0,7.885233034,117.4103214,10.89,'11111222,11111222,11111222' 
TABS,ioos:station:wmo:42044:1,2002-05-18T04:09:00Z,26.1914,-97.0507,0.0,7.437586974,94.93678235,11.55,'11111222,11111222,11111222' 
TABS,ioos:station:wmo:42044:1,2002-05-18T06:39:00Z,26.1914,-97.0507,0.0,9.792165236,47.93852934,14.91,'11111222,11111222,11111222' 
TABS,ioos:station:wmo:42044:1,2002-05-18T07:09:00Z,26.1914,-97.0507,0.0,9.296590773,87.8419907,14.43,'11111222,11111222,11111222' 
TABS,ioos:station:wmo:42044:1,2002-05-18T07:39:00Z,26.1914,-97.0507,0.0,6.449372062,347.6444586,10.57,'11111222,11111222,11111222' 
TABS,ioos:station:wmo:42044:1,2002-05-18T08:39:00Z,26.1914,-97.0507,0.0,11.29120897,325.9016589,15.8,'11111222,11111222,11111222' 
TABS,ioos:station:wmo:42044:1,2002-05-18T09:09:00Z,26.1914,-97.0507,0.0,9.650621742,328.5168238,14.38,'11111222,11111222,11111222' 
TABS,ioos:station:wmo:42044:1,2002-05-18T11:39:00Z,26.1914,-97.0507,0.0,7.918838299,335.0528912,11.5,'11111222,11111222,11111222' 
TABS,ioos:station:wmo:42044:1,2002-05-18T14:09:00Z,26.1914,-97.0507,0.0,12.83298874,343.4288771,17.07,'11111222,11111222,11111222' 
TABS,ioos:station:wmo:42044:1,2002-05-18T14:39:00Z,26.1914,-97.0507,0.0,13.6278098,335.0896313,18.16,'11111222,11111222,11111222' 
TABS,ioos:station:wmo:42044:1,2002-05-18T17:09:00Z,26.1914,-97.0507,0.0,9.207062507,331.8761199,12.77,'11111222,11111222,11111222' 
TABS,ioos:station:wmo:42044:1,2002-05-18T18:39:00Z,26.1914,-97.0507,0.0,10.29240497,330.2964063,13.75,'11111222,11111222,11111222' 
TABS,ioos:station:wmo:42044:1,2002-05-18T22:09:00Z,26.1914,-97.0507,0.0,10.04362982,336.7787815,13.18,'11111222,11111222,11111222' 
TABS,ioos:station:wmo:42044:1,2002-05-19T00:09:00Z,26.1914,-97.0507,0.0,10.13959565,342.4941141,13.39,'11111222,11111222,11111222' 
TABS,ioos:station:wmo:42044:1,2002-05-19T01:09:00Z,26.1914,-97.0507,0.0,9.85160393,343.7908025,13.4,'11111222,11111222,11111222' 
TABS,ioos:station:wmo:42044:1,2002-05-19T04:09:00Z,26.1914,-97.0507,0.0,7.939603265,343.6876645,10.61,'11111222,11111222,11111222' 
TABS,ioos:station:wmo:42044:1,2002-05-19T05:39:00Z,26.1914,-97.0507,0.0,7.089964739,341.9226575,9.69,'11111222,11111222,11111222' 
TABS,ioos:station:wmo:42044:1,2002-05-19T08:09:00Z,26.1914,-97.0507,0.0,8.383513583,352.9426054,12.07,'11111222,11111222,11111222' 
TABS,ioos:station:wmo:42044:1,2002-05-19T08:39:00Z,26.1914,-97.0507,0.0,7.778495999,352.3905614,12.02,'11111222,11111222,11111222' 
TABS,ioos:station:wmo:42044:1,2002-05-19T09:09:00Z,26.1914,-97.0507,0.0,7.320553258,0.704208705,9.93,'11111222,11111222,11111222' 
TABS,ioos:station:wmo:42044:1,2002-05-19T10:09:00Z,26.1914,-97.0507,0.0,8.181197956,5.752180784,11.38,'11111222,11111222,11111222' 
TABS,ioos:station:wmo:42044:1,2002-05-19T11:39:00Z,26.1914,-97.0507,0.0,9.29113556,4.691723756,12.57,'11111222,11111222,11111222' 
TABS,ioos:station:wmo:42044:1,2002-05-19T13:09:00Z,26.1914,-97.0507,0.0,8.406093028,8.206986761,11.87,'11111222,11111222,11111222' 
TABS,ioos:station:wmo:42044:1,2002-05-19T14:39:00Z,26.1914,-97.0507,0.0,8.073345032,18.63667672,11.35,'11111222,11111222,11111222' 
TABS,ioos:station:wmo:42044:1,2002-05-19T15:09:00Z,26.1914,-97.0507,0.0,7.931405928,11.93306573,11.51,'11111222,11111222,11111222' 
TABS,ioos:station:wmo:42044:1,2002-05-19T15:39:00Z,26.1914,-97.0507,0.0,7.518703346,4.041962192,10.28,'11111222,11111222,11111222' 
TABS,ioos:station:wmo:42044:1,2002-05-19T17:39:00Z,26.1914,-97.0507,0.0,6.670007496,351.1164989,9.79,'11111222,11111222,11111222' 
TABS,ioos:station:wmo:42044:1,2002-05-19T20:09:00Z,26.1914,-97.0507,0.0,7.510958661,352.1178311,10.42,'11111222,11111222,11111222' 
TABS,ioos:station:wmo:42044:1,2002-05-19T20:39:00Z,26.1914,-97.0507,0.0,8.338297188,352.1418002,11.54,'11111222,11111222,11111222' 
TABS,ioos:station:wmo:42044:1,2002-05-19T21:39:00Z,26.1914,-97.0507,0.0,8.309975933,353.7129109,12.51,'11111222,11111222,11111222' 
TABS,ioos:station:wmo:42044:1,2002-05-19T23:09:00Z,26.1914,-97.0507,0.0,8.678824805,5.421331602,12.99,'11111222,11111222,11111222' 
TABS,ioos:station:wmo:42044:1,2002-05-20T00:39:00Z,26.1914,-97.0507,0.0,8.640891158,4.846018275,12.29,'11111222,11111222,11111222' 
TABS,ioos:station:wmo:42044:1,2002-05-20T02:09:00Z,26.1914,-97.0507,0.0,8.185578782,14.06995316,12.67,'11111222,11111222,11111222' 
TABS,ioos:station:wmo:42044:1,2002-05-20T02:39:00Z,26.1914,-97.0507,0.0,7.134773998,25.30770912,10.99,'11111222,11111222,11111222' 
TABS,ioos:station:wmo:42044:1,2002-05-20T04:09:00Z,26.1914,-97.0507,0.0,7.095047569,31.33740658,10.87,'11111222,11111222,11111222' 
TABS,ioos:station:wmo:42044:1,2002-05-20T04:39:00Z,26.1914,-97.0507,0.0,6.928325916,39.31819747,10.93,'11111222,11111222,11111222' 
TABS,ioos:station:wmo:42044:1,2002-05-20T05:09:00Z,26.1914,-97.0507,0.0,6.467967223,47.25523967,9.91,'11111222,11111222,11111222' 
TABS,ioos:station:wmo:42044:1,2002-05-20T07:39:00Z,26.1914,-97.0507,0.0,5.54582726,51.00102864,8.21,'11111222,11111222,11111222' 
TABS,ioos:station:wmo:42044:1,2002-05-20T10:09:00Z,26.1914,-97.0507,0.0,5.588022906,50.95554741,8.3,'11111222,11111222,11111222' 
TABS,ioos:station:wmo:42044:1,2002-05-20T12:39:00Z,26.1914,-97.0507,0.0,4.872011905,45.24915579,7.58,'11111222,11111222,11111222' 
TABS,ioos:station:wmo:42044:1,2002-05-20T16:09:00Z,26.1914,-97.0507,0.0,4.87804264,23.30628517,7.19,'11111222,11111222,11111222' 
TABS,ioos:station:wmo:42044:1,2002-05-20T16:39:00Z,26.1914,-97.0507,0.0,4.322337331,36.15377407,7.28,'11111222,11111222,11111222' 
TABS,ioos:station:wmo:42044:1,2002-05-20T17:09:00Z,26.1914,-97.0507,0.0,4.144502383,34.87847318,6.78,'11111222,11111222,11111222' 
TABS,ioos:station:wmo:42044:1,2002-05-20T18:39:00Z,26.1914,-97.0507,0.0,5.436441851,41.04681627,7.9,'11111222,11111222,11111222' 
TABS,ioos:station:wmo:42044:1,2002-05-20T19:39:00Z,26.1914,-97.0507,0.0,5.828636204,64.70957042,8.54,'11111222,11111222,11111222' 
TABS,ioos:station:wmo:42044:1,2002-05-20T20:39:00Z,26.1914,-97.0507,0.0,5.957885531,58.8709684,8.4,'11111222,11111222,11111222' 
TABS,ioos:station:wmo:42044:1,2002-05-20T21:09:00Z,26.1914,-97.0507,0.0,6.130391505,57.32058503,8.42,'11111222,11111222,11111222' 
TABS,ioos:station:wmo:42044:1,2002-05-20T23:39:00Z,26.1914,-97.0507,0.0,6.662769694,68.0545027,9.25,'11111222,11111222,11111222' 
TABS,ioos:station:wmo:42044:1,2002-05-21T00:09:00Z,26.1914,-97.0507,0.0,6.193109074,60.495745,8.57,'11111222,11111222,11111222' 
TABS,ioos:station:wmo:42044:1,2002-05-21T00:39:00Z,26.1914,-97.0507,0.0,5.809044672,66.56792439,8.48,'11111222,11111222,11111222' 
TABS,ioos:station:wmo:42044:1,2002-05-21T01:39:00Z,26.1914,-97.0507,0.0,5.422849804,60.50376332,8.26,'11111222,11111222,11111222' 
TABS,ioos:station:wmo:42044:1,2002-05-21T02:39:00Z,26.1914,-97.0507,0.0,6.27799331,74.8565578,8.66,'11111222,11111222,11111222' 
TABS,ioos:station:wmo:42044:1,2002-05-21T03:09:00Z,26.1914,-97.0507,0.0,6.170032415,70.88925625,8.84,'11111222,11111222,11111222' 
TABS,ioos:station:wmo:42044:1,2002-05-21T03:39:00Z,26.1914,-97.0507,0.0,5.952377676,84.02081703,8.49,'11111222,11111222,11111222' 
TABS,ioos:station:wmo:42044:1,2002-05-21T06:09:00Z,26.1914,-97.0507,0.0,6.774835791,128.5280605,10.01,'11111222,11111222,11111222' 
TABS,ioos:station:wmo:42044:1,2002-05-21T06:39:00Z,26.1914,-97.0507,0.0,6.397280672,130.5627629,9.0,'11111222,11111222,11111222' 
TABS,ioos:station:wmo:42044:1,2002-05-21T07:09:00Z,26.1914,-97.0507,0.0,6.67854026,131.7834781,9.22,'11111222,11111222,11111222' 
TABS,ioos:station:wmo:42044:1,2002-05-21T08:09:00Z,26.1914,-97.0507,0.0,5.264076367,99.62376393,8.04,'11111222,11111222,11111222' 
TABS,ioos:station:wmo:42044:1,2002-05-21T10:09:00Z,26.1914,-97.0507,0.0,6.741661516,110.8548302,9.88,'11111222,11111222,11111222' 
TABS,ioos:station:wmo:42044:1,2002-05-21T10:39:00Z,26.1914,-97.0507,0.0,6.013667766,92.00161765,9.48,'11111222,11111222,11111222' 
TABS,ioos:station:wmo:42044:1,2002-05-21T17:09:00Z,26.1914,-97.0507,0.0,7.260061983,120.2738295,9.66,'11111222,11111222,11111222' 
TABS,ioos:station:wmo:42044:1,2002-05-21T17:39:00Z,26.1914,-97.0507,0.0,6.702969491,110.7064849,9.92,'11111222,11111222,11111222' 
TABS,ioos:station:wmo:42044:1,2002-05-21T18:09:00Z,26.1914,-97.0507,0.0,6.534408925,110.515368,10.32,'11111222,11111222,11111222' 
TABS,ioos:station:wmo:42044:1,2002-05-21T19:09:00Z,26.1914,-97.0507,0.0,7.89922781,121.0138624,11.47,'11111222,11111222,11111222' 
TABS,ioos:station:wmo:42044:1,2002-05-21T19:39:00Z,26.1914,-97.0507,0.0,7.707561223,114.2043833,10.66,'11111222,11111222,11111222' 
TABS,ioos:station:wmo:42044:1,2002-05-21T20:09:00Z,26.1914,-97.0507,0.0,7.892705493,103.3323567,12.14,'11111222,11111222,11111222' 
TABS,ioos:station:wmo:42044:1,2002-05-21T23:09:00Z,26.1914,-97.0507,0.0,9.103603682,124.5283118,12.48,'11111222,11111222,11111222' 
TABS,ioos:station:wmo:42044:1,2002-05-22T02:39:00Z,26.1914,-97.0507,0.0,8.291356946,141.0706903,12.07,'11111222,11111222,11111222' 
TABS,ioos:station:wmo:42044:1,2002-05-22T03:39:00Z,26.1914,-97.0507,0.0,8.344686932,140.8365012,11.28,'11111222,11111222,11111222' 
TABS,ioos:station:wmo:42044:1,2002-05-22T04:09:00Z,26.1914,-97.0507,0.0,8.499470572,149.0596481,12.15,'11111222,11111222,11111222' 
TABS,ioos:station:wmo:42044:1,2002-05-22T04:39:00Z,26.1914,-97.0507,0.0,8.143076814,156.0163452,11.56,'11111222,11111222,11111222' 
TABS,ioos:station:wmo:42044:1,2002-05-22T10:39:00Z,26.1914,-97.0507,0.0,8.611213619,158.8289922,12.93,'11111222,11111222,11111222' 
TABS,ioos:station:wmo:42044:1,2002-05-22T11:09:00Z,26.1914,-97.0507,0.0,8.854834838,156.0114981,11.65,'11111222,11111222,11111222' 
TABS,ioos:station:wmo:42044:1,2002-05-22T14:39:00Z,26.1914,-97.0507,0.0,8.264550804,153.2491972,11.35,'11111222,11111222,11111222' 
TABS,ioos:station:wmo:42044:1,2002-05-22T15:39:00Z,26.1914,-97.0507,0.0,7.485779852,155.2839309,11.74,'11111222,11111222,11111222' 
TABS,ioos:station:wmo:42044:1,2002-05-22T17:09:00Z,26.1914,-97.0507,0.0,7.442714559,164.7316239,10.61,'11111222,11111222,11111222' 
TABS,ioos:station:wmo:42044:1,2002-05-22T21:09:00Z,26.1914,-97.0507,0.0,8.36292413,156.6847261,11.98,'11111222,11111222,11111222' 
TABS,ioos:station:wmo:42044:1,2002-05-22T22:09:00Z,26.1914,-97.0507,0.0,8.225916362,151.223051,11.08,'11111222,11111222,11111222' 
TABS,ioos:station:wmo:42044:1,2002-05-22T22:39:00Z,26.1914,-97.0507,0.0,8.043612373,146.9226691,11.04,'11111222,11111222,11111222' 
TABS,ioos:station:wmo:42044:1,2002-05-22T23:39:00Z,26.1914,-97.0507,0.0,8.587071678,147.8463765,11.82,'11111222,11111222,11111222' 
TABS,ioos:station:wmo:42044:1,2002-05-23T00:39:00Z,26.1914,-97.0507,0.0,9.475405005,144.666464,12.77,'11111222,11111222,11111222' 
TABS,ioos:station:wmo:42044:1,2002-05-23T01:39:00Z,26.1914,-97.0507,0.0,9.020005543,143.0668784,12.76,'11111222,11111222,11111222' 
TABS,ioos:station:wmo:42044:1,2002-05-23T02:09:00Z,26.1914,-97.0507,0.0,9.632548988,144.8913225,12.87,'11111222,11111222,11111222' 
TABS,ioos:station:wmo:42044:1,2002-05-23T03:39:00Z,26.1914,-97.0507,0.0,9.842083113,148.0380975,13.88,'11111222,11111222,11111222' 
TABS,ioos:station:wmo:42044:1,2002-05-23T05:09:00Z,26.1914,-97.0507,0.0,10.88434656,150.6798031,14.72,'11111222,11111222,11111222' 
TABS,ioos:station:wmo:42044:1,2002-05-23T06:39:00Z,26.1914,-97.0507,0.0,10.72105405,155.9455316,14.72,'11111222,11111222,11111222' 
TABS,ioos:station:wmo:42044:1,2002-05-23T08:09:00Z,26.1914,-97.0507,0.0,10.18789969,162.7569392,14.23,'11111222,11111222,11111222' 
TABS,ioos:station:wmo:42044:1,2002-05-23T09:09:00Z,26.1914,-97.0507,0.0,10.12170934,162.8184471,14.7,'11111222,11111222,11111222' 
TABS,ioos:station:wmo:42044:1,2002-05-23T13:39:00Z,26.1914,-97.0507,0.0,10.11862145,164.7004312,13.69,'11111222,11111222,11111222' 
TABS,ioos:station:wmo:42044:1,2002-05-23T14:09:00Z,26.1914,-97.0507,0.0,9.393412585,165.8900318,13.1,'11111222,11111222,11111222' 
TABS,ioos:station:wmo:42044:1,2002-05-23T16:09:00Z,26.1914,-97.0507,0.0,9.386144043,166.0676352,13.05,'11111222,11111222,11111222' 
TABS,ioos:station:wmo:42044:1,2002-05-23T18:09:00Z,26.1914,-97.0507,0.0,9.336514339,164.3414541,12.5,'11111222,11111222,11111222' 
TABS,ioos:station:wmo:42044:1,2002-05-23T18:39:00Z,26.1914,-97.0507,0.0,10.02236,160.7156052,13.63,'11111222,11111222,11111222' 
TABS,ioos:station:wmo:42044:1,2002-05-23T19:09:00Z,26.1914,-97.0507,0.0,9.276017464,163.8512254,12.4,'11111222,11111222,11111222' 
TABS,ioos:station:wmo:42044:1,2002-05-23T23:09:00Z,26.1914,-97.0507,0.0,9.834886883,161.9337604,13.44,'11111222,11111222,11111222' 
TABS,ioos:station:wmo:42044:1,2002-05-23T23:39:00Z,26.1914,-97.0507,0.0,9.402393312,164.2641119,12.12,'11111222,11111222,11111222' 
TABS,ioos:station:wmo:42044:1,2002-05-24T00:09:00Z,26.1914,-97.0507,0.0,9.313028508,161.2734789,12.41,'11111222,11111222,11111222' 
TABS,ioos:station:wmo:42044:1,2002-05-24T03:09:00Z,26.1914,-97.0507,0.0,8.509858988,161.9272568,11.75,'11111222,11111222,11111222' 
TABS,ioos:station:wmo:42044:1,2002-05-24T07:39:00Z,26.1914,-97.0507,0.0,8.843822703,159.0650788,12.04,'11111222,11111222,11111222' 
TABS,ioos:station:wmo:42044:1,2002-05-24T08:39:00Z,26.1914,-97.0507,0.0,7.11604525,166.1788087,9.61,'11111222,11111222,11111222' 
TABS,ioos:station:wmo:42044:1,2002-05-24T09:09:00Z,26.1914,-97.0507,0.0,6.748407219,161.2431208,8.81,'11111222,11111222,11111222' 
TABS,ioos:station:wmo:42044:1,2002-05-24T09:39:00Z,26.1914,-97.0507,0.0,6.485445243,159.8888376,8.82,'11111222,11111222,11111222' 
TABS,ioos:station:wmo:42044:1,2002-05-24T11:09:00Z,26.1914,-97.0507,0.0,8.017636809,160.5483291,11.06,'11111222,11111222,11111222' 
TABS,ioos:station:wmo:42044:1,2002-05-24T13:09:00Z,26.1914,-97.0507,0.0,9.025884998,166.8724007,12.59,'11111222,11111222,11111222' 
TABS,ioos:station:wmo:42044:1,2002-05-24T14:39:00Z,26.1914,-97.0507,0.0,9.868520659,163.4567147,12.47,'11111222,11111222,11111222' 
TABS,ioos:station:wmo:42044:1,2002-05-24T15:39:00Z,26.1914,-97.0507,0.0,9.751902379,159.5954977,12.76,'11111222,11111222,11111222' 
TABS,ioos:station:wmo:42044:1,2002-05-24T16:39:00Z,26.1914,-97.0507,0.0,9.399728719,159.772388,13.07,'11111222,11111222,11111222' 
TABS,ioos:station:wmo:42044:1,2002-05-24T17:09:00Z,26.1914,-97.0507,0.0,9.151808564,161.9216656,12.13,'11111222,11111222,11111222' 
TABS,ioos:station:wmo:42044:1,2002-05-24T19:09:00Z,26.1914,-97.0507,0.0,8.436646253,175.4452549,10.82,'11111222,11111222,11111222' 
TABS,ioos:station:wmo:42044:1,2002-05-24T20:09:00Z,26.1914,-97.0507,0.0,8.841809769,172.2000408,11.66,'11111222,11111222,11111222' 
TABS,ioos:station:wmo:42044:1,2002-05-24T23:39:00Z,26.1914,-97.0507,0.0,8.044109646,170.7721034,11.22,'11111222,11111222,11111222' 